Preview of NWS' New Version of Forecast
This preview is not operational and should not be used for support decisions.

Regional Weather Roundup (RWR)

Issued by National Weather Service (NWS)

                            
000
ASUS45 KABQ 192101
RWRNM 
NEW MEXICO REGIONAL WEATHER ROUNDUP
NATIONAL WEATHER SERVICE ALBUQUERQUE NM
300 PM MDT FRI APR 19 2019

NOTE: "FAIR" MEANS FEW OR NO CLOUDS BELOW 12,000 FEET AGL WITH NO
       SIGNIFICANT WEATHER OR OBSTRUCTIONS TO VISION.

      THIS PRODUCT IS RELEASED AS TWO VERSIONS.  ONE VERSION NEAR
      THE TOP OF THE HOUR CONTAINING PRELIMINARY DATA FROM ALBUQUERQUE
      AND OTHER STATIONS.  A FINAL VERSION WITH ADDITIONAL DATA IS 
      ISSUED ABOUT 10 MINUTES AFTER THE HOUR.
 
NMZ501-503-504-510>518-192200-
NORTHWEST PLATEAU/NORTHCENTRAL MOUNTAINS
  
CITY           SKY/WX    TMP DP  RH WIND       PRES   REMARKS
FARMINGTON     FAIR      74  21  13 SW8       30.14F                  
LOS ALAMOS       N/A     66  25  21 S14       30.25F                  
SANTA FE       FAIR      71  24  17 W13       30.19F                  
TAOS           FAIR      69  21  16 NW9       30.23F                  

$$
NMZ402-403-502-505>509-192200-
WESTCENTRAL MOUNTAINS/SOUTHWEST MOUNTAINS
  
CITY           SKY/WX    TMP DP  RH WIND       PRES   REMARKS
GALLUP         FAIR      73  15  11 VRB5      30.22F                  
GRANTS         FAIR      73  15  10 N9G17     30.23F                  
SILVER CITY    FAIR      76  19  11 SE13      30.20F                  

$$
NMZ407-409-411-412-192200-
SOUTHERN DESERTS
  
CITY           SKY/WX    TMP DP  RH WIND       PRES   REMARKS
DEMING         FAIR      83  19   9 MISG      30.12F                  
LAS CRUCES     FAIR      80  24  12 E3        30.16F                  
HOLLOMAN AFB   FAIR      77  29  17 S3        30.16F                  
ALAMOGORDO     FAIR      75  27  16 NW7       30.15F                  
T OR C         FAIR      81  14   8 S10       30.13F                  

$$
NMZ519>523-192200-
CENTRAL VALLEYS/CENTRAL HIGHLANDS
  
CITY           SKY/WX    TMP DP  RH WIND       PRES   REMARKS
ALBUQUERQUE    FAIR      73  24  16 W6        30.18F                  
DOUBLE EAGLE   SUNNY     70  30  23 VRB7      30.21F                  
CLINES CORNERS FAIR      69  24  18 W12G23    30.24F                  
BELEN          FAIR      73  24  16 NE5       30.18F                  
SOCORRO        NOT AVBL                                               

$$
NMZ524>526-539-540-192200-
SOUTHCENTRAL MOUNTAINS
  
CITY           SKY/WX    TMP DP  RH WIND       PRES   REMARKS
RUIDOSO        FAIR      68  18  14 NW14G22   30.27F                  

$$
NMZ527>531-192200-
NORTHEAST HIGHLANDS/NORTHEAST PLAINS
  
CITY           SKY/WX    TMP DP  RH WIND       PRES   REMARKS
LAS VEGAS      FAIR      70  27  20 SW12G22   30.18F                  
RATON          FAIR      71  29  21 S12       30.15F                  
CLAYTON        FAIR      69  35  28 MISG      30.13F                  

$$
NMZ532>537-192200-
EASTCENTRAL PLAINS
  
CITY           SKY/WX    TMP DP  RH WIND       PRES   REMARKS
SANTA ROSA     FAIR      74  31  20 SE13G23   30.12F                  
TUCUMCARI      FAIR      74  35  24 S10       30.10F                  
CANNON AFB     FAIR      71  32  24 SW9G20    30.17F                  
CLOVIS AIRPORT FAIR      71  34  25 SW9       30.16F                  

$$
NMZ028-029-538-192200-
SOUTHEAST PLAINS
  
CITY           SKY/WX    TMP DP  RH WIND       PRES   REMARKS
ROSWELL        FAIR      75  30  19 S14       30.13F                  
ARTESIA        FAIR      73  32  21 SE10G21   30.15F                  
CARLSBAD       FAIR      75  32  20 S9        30.13F                  
HOBBS          SUNNY     72  28  20 S7        30.17F                  


$$